Weather History for PAPG - February, 2013

Change the Weather History Date:

Tuesday, February 12, 2013

  Actual Average Record
Temperature  
Mean Temperature 34 °F -  
Max Temperature 37 °F 36 °F 51 °F (1987)
Min Temperature 30 °F 27 °F 11 °F (1985)
Degree Days  
Heating Degree Days 32    
Moisture  
Dew Point 29 °F    
Average Humidity 83    
Maximum Humidity 93    
Minimum Humidity 65    
Precipitation  
Precipitation 0.20 in - - ()
Sea Level Pressure  
Sea Level Pressure 29.86 in    
Wind  
Wind Speed 3 mph (WSW)    
Max Wind Speed 13 mph    
Max Gust Speed 21 mph    
Visibility 8 miles    
Events      
Averages and records for this station are not official NWS values.
T = Trace of Precipitation, MM = Missing Value Source: NWS Daily Summary

Daily Weather History Graph

Daily Weather History Graph

Search for Another Location

Airport or City:

Trip Planner

Search our weather history database for the weather conditions in past years. The results will help you decide how hot, cold, wet, or windy it might be!

Date:

Astronomy

Feb. 12, 2013 Rise Set
Actual Time 7:25 AM AKST 4:47 PM AKST
Civil Twilight 6:45 AM AKST 5:27 PM AKST
Nautical Twilight 6:00 AM AKST 6:12 PM AKST
Astronomical Twilight 5:16 AM AKST 6:56 PM AKST
Moon 7:44 AM AKST (2/12) 8:45 PM AKST (2/12)
Length of Visible Light 10h 42m
Length of Day
9h 22m
Waxing Crescent, 8% of the Moon is Illuminated
Feb 12
Waxing Crescent
Feb 17
First Quarter
Feb 25
Full
Mar 4
Last Quarter
Mar 11
New

Hourly Weather History & Observations

Time (AKST) Temp. Windchill Dew Point Humidity Pressure Visibility Wind Dir Wind Speed Gust Speed Precip Events Conditions
12:16 AM 33.8 °F - 30.2 °F 87% 29.77 in 2.5 mi Calm Calm - 0.01 in   Overcast
12:36 AM 33.8 °F 30.8 °F 30.2 °F 87% 29.76 in 3.0 mi East 3.5 mph - 0.01 in   Overcast
12:56 AM 33.8 °F - 30.2 °F 87% 29.76 in 2.0 mi Calm Calm - 0.02 in   Overcast
1:16 AM 33.8 °F - 30.2 °F 87% 29.75 in 2.0 mi Calm Calm - N/A   Overcast
1:36 AM 33.8 °F 30.8 °F 30.2 °F 87% 29.74 in 1.8 mi East 3.5 mph - 0.01 in   Overcast
1:56 AM 32.0 °F - 30.2 °F 93% 29.74 in 1.0 mi Calm Calm - 0.01 in   Overcast
2:16 AM 33.8 °F - 30.2 °F 87% 29.73 in 1.5 mi Calm Calm - N/A   Overcast
2:36 AM 33.8 °F - 30.2 °F 87% 29.72 in 1.5 mi Calm Calm - N/A   Overcast
2:56 AM 32.0 °F - 30.2 °F 93% 29.71 in 3.0 mi Calm Calm - N/A   Overcast
3:16 AM 33.8 °F - 30.2 °F 87% 29.70 in 4.0 mi Calm Calm - N/A   Overcast
3:36 AM 33.8 °F - 30.2 °F 87% 29.70 in 7.0 mi Calm Calm - 0.01 in   Overcast
3:56 AM 32.0 °F - 30.2 °F 93% 29.69 in 5.0 mi Calm Calm - 0.03 in   Overcast
4:16 AM 33.8 °F - 30.2 °F 87% 29.69 in 8.0 mi Calm Calm - 0.01 in   Overcast
4:36 AM 33.8 °F - 30.2 °F 87% 29.69 in 4.0 mi Calm Calm - 0.03 in   Overcast
4:56 AM 33.8 °F - 30.2 °F 87% 29.69 in 5.0 mi Calm Calm - 0.05 in   Overcast
5:16 AM 33.8 °F - 30.2 °F 87% 29.69 in 10.0 mi Calm Calm - 0.01 in   Overcast
5:36 AM 33.8 °F - 30.2 °F 87% 29.69 in 10.0 mi Calm Calm - 0.02 in   Overcast
5:56 AM 33.8 °F - 30.2 °F 87% 29.69 in 7.0 mi Calm Calm - 0.03 in   Overcast
6:16 AM 33.8 °F - 30.2 °F 87% 29.68 in 7.0 mi Calm Calm - 0.01 in   Overcast
6:36 AM 33.8 °F - 30.2 °F 87% 29.68 in 7.0 mi Calm Calm - 0.02 in   Overcast
6:56 AM 33.8 °F - 30.2 °F 87% 29.68 in 4.0 mi Calm Calm - 0.03 in   Overcast
7:16 AM 33.8 °F - 30.2 °F 87% 29.68 in 4.0 mi Calm Calm - N/A   Overcast
7:36 AM 33.8 °F - 32.0 °F 93% 29.67 in 3.0 mi Calm Calm - 0.01 in   Overcast
7:56 AM 33.8 °F - 32.0 °F 93% 29.67 in 5.0 mi Calm Calm - 0.01 in   Mostly Cloudy
8:16 AM 33.8 °F - 30.2 °F 87% 29.68 in 5.0 mi Calm Calm - 0.01 in   Mostly Cloudy
8:36 AM 33.8 °F - 30.2 °F 87% 29.68 in 7.0 mi Calm Calm - 0.01 in   Overcast
8:56 AM 33.8 °F 29.6 °F 32.0 °F 93% 29.69 in 7.0 mi West 4.6 mph - 0.02 in   Mostly Cloudy
9:16 AM 35.6 °F 29.2 °F 32.0 °F 87% 29.70 in 10.0 mi West 8.1 mph - N/A   Mostly Cloudy
9:36 AM 33.8 °F - 32.0 °F 93% 29.70 in 0.8 mi Calm Calm - N/A   Mostly Cloudy
9:56 AM 35.6 °F 28.6 °F 32.0 °F 87% 29.71 in 10.0 mi West 9.2 mph - N/A   Mostly Cloudy
10:16 AM 35.6 °F 28.0 °F 30.2 °F 81% 29.72 in 10.0 mi West 10.4 mph - N/A   Mostly Cloudy
10:36 AM 35.6 °F 29.2 °F 32.0 °F 87% 29.73 in 10.0 mi West 8.1 mph - N/A   Scattered Clouds
10:56 AM 37.4 °F 29.8 °F 32.0 °F 81% 29.73 in 10.0 mi West 11.5 mph - N/A   Partly Cloudy
11:16 AM 37.4 °F 29.3 °F 30.2 °F 75% 29.75 in 10.0 mi West 12.7 mph - N/A   Partly Cloudy
11:36 AM 37.4 °F 30.3 °F 30.2 °F 75% 29.76 in 10.0 mi West 10.4 mph - N/A   Partly Cloudy
11:56 AM 37.4 °F 30.8 °F 30.2 °F 75% 29.78 in 10.0 mi West 9.2 mph - N/A   Partly Cloudy
12:16 PM 37.4 °F 29.8 °F 28.4 °F 70% 29.78 in 10.0 mi WSW 11.5 mph 16.1 mph N/A   Partly Cloudy
12:36 PM 37.4 °F 29.8 °F 28.4 °F 70% 29.80 in 10.0 mi West 11.5 mph 20.7 mph N/A   Partly Cloudy
12:56 PM 37.4 °F 29.8 °F 28.4 °F 70% 29.81 in 10.0 mi West 11.5 mph 20.7 mph N/A   Partly Cloudy
1:16 PM 37.4 °F 30.3 °F 28.4 °F 70% 29.83 in 10.0 mi West 10.4 mph 18.4 mph N/A   Partly Cloudy
1:36 PM 37.4 °F 29.8 °F 28.4 °F 70% 29.84 in 10.0 mi West 11.5 mph 19.6 mph N/A   Partly Cloudy
1:56 PM 37.4 °F 30.8 °F 28.4 °F 70% 29.85 in 10.0 mi WNW 9.2 mph 17.3 mph N/A   Partly Cloudy
2:16 PM 37.4 °F 29.8 °F 26.6 °F 65% 29.87 in 10.0 mi West 11.5 mph 16.1 mph N/A   Partly Cloudy
2:36 PM 37.4 °F 29.3 °F 26.6 °F 65% 29.88 in 10.0 mi West 12.7 mph - N/A   Partly Cloudy
2:56 PM 37.4 °F 30.3 °F 26.6 °F 65% 29.89 in 10.0 mi West 10.4 mph 16.1 mph N/A   Scattered Clouds
3:16 PM 37.4 °F 31.4 °F 26.6 °F 65% 29.91 in 10.0 mi West 8.1 mph - N/A   Scattered Clouds
3:36 PM - - - N/A% - - Calm Calm - N/A   Unknown
3:56 PM 35.6 °F 28.0 °F 24.8 °F 65% 29.95 in 10.0 mi West 10.4 mph - N/A   Scattered Clouds
4:16 PM 35.6 °F 29.9 °F 26.6 °F 70% 29.97 in 10.0 mi West 6.9 mph - N/A   Scattered Clouds
4:36 PM 35.6 °F 29.9 °F 26.6 °F 70% 29.98 in 10.0 mi WSW 6.9 mph - N/A   Scattered Clouds
4:56 PM 33.8 °F 29.6 °F 26.6 °F 75% 29.99 in 10.0 mi WSW 4.6 mph - N/A   Scattered Clouds
5:16 PM 33.8 °F 29.6 °F 26.6 °F 75% 30.00 in 10.0 mi SW 4.6 mph - N/A   Scattered Clouds
5:36 PM 32.0 °F 27.5 °F 26.6 °F 80% 30.01 in 10.0 mi SW 4.6 mph - N/A   Scattered Clouds
5:56 PM 32.0 °F 26.4 °F 26.6 °F 80% 30.01 in 10.0 mi SSW 5.8 mph - N/A   Scattered Clouds
6:16 PM 32.0 °F 27.5 °F 26.6 °F 80% 30.02 in 10.0 mi WSW 4.6 mph - N/A   Scattered Clouds
6:36 PM 33.8 °F 27.7 °F 26.6 °F 75% 30.03 in 10.0 mi WSW 6.9 mph - N/A   Scattered Clouds
6:56 PM 33.8 °F 29.6 °F 28.4 °F 81% 30.05 in 10.0 mi WSW 4.6 mph - N/A   Scattered Clouds
7:16 PM 32.0 °F 26.4 °F 28.4 °F 87% 30.06 in 10.0 mi WSW 5.8 mph - N/A   Scattered Clouds
7:36 PM 32.0 °F 25.6 °F 28.4 °F 87% 30.07 in 10.0 mi SW 6.9 mph - N/A   Scattered Clouds
7:56 PM 30.2 °F 23.4 °F 28.4 °F 93% 30.08 in 10.0 mi WSW 6.9 mph - N/A   Scattered Clouds
8:16 PM 30.2 °F 23.4 °F 28.4 °F 93% 30.08 in 10.0 mi WSW 6.9 mph - N/A   Scattered Clouds
8:36 PM 32.0 °F 27.5 °F 28.4 °F 87% 30.09 in 10.0 mi WSW 4.6 mph - N/A   Scattered Clouds
8:56 PM 32.0 °F 25.6 °F 28.4 °F 87% 30.10 in 10.0 mi WSW 6.9 mph - N/A   Mostly Cloudy
9:16 PM 32.0 °F 26.4 °F 28.4 °F 87% 30.11 in 10.0 mi West 5.8 mph - N/A   Mostly Cloudy
9:36 PM 32.0 °F 24.8 °F 28.4 °F 87% 30.12 in 10.0 mi WSW 8.1 mph - N/A   Mostly Cloudy
9:56 PM 32.0 °F 26.4 °F 28.4 °F 87% 30.13 in 10.0 mi WSW 5.8 mph - N/A   Overcast
10:16 PM 32.0 °F 25.6 °F 28.4 °F 87% 30.14 in 10.0 mi West 6.9 mph - N/A   Overcast
10:36 PM 32.0 °F - 28.4 °F 87% 30.15 in 10.0 mi Calm Calm - N/A   Overcast
10:56 PM 33.8 °F - 30.2 °F 87% 30.16 in 10.0 mi Calm Calm - N/A   Overcast
11:16 PM 32.0 °F - 28.4 °F 87% 30.16 in 10.0 mi Calm Calm - N/A   Overcast
11:36 PM 32.0 °F 28.7 °F 28.4 °F 87% 30.17 in 10.0 mi SSW 3.5 mph - N/A   Overcast
11:56 PM 32.0 °F - 28.4 °F 87% 30.17 in 10.0 mi Calm Calm - N/A   Overcast